Powrót do katalogu

STARLINK-36216

AktywnyŁącznośćVLEO
NORAD 67217·PAYLOAD·🇺🇸 United States

Wystrzelony Dec 17, 2025 z Vandenberg Space Force Base

Loading…

Następne Przeloty (najbliższe 24 godziny)

TLE

ŚwieżeSource: CelesTrak SupGP

Epoka: Sep 15, 2026, 02:11 UTC

1 67217C 25304AB  26258.09145833 -.00054483  00000+0 -45662-2 0  2581
2 67217  70.0010  56.9306 0003045 272.9480 117.9773 14.98355230    12

Śledź STARLINK-36216 w czasie rzeczywistym z AllMySat

Download on the App Store